ECMWFNIL_sfc_temp_000.txt.gz
Temp
43 43 42 41 41 41 40 39 38 38 37 36 35 36 35 35 35 34 33 33 32 31 31 30 30 30 31 30 30 30 30 29 29 29 28 29 28 28 29 28 28 28
43 42 41 41 39 39 39 39 39 38 37 36 35 34 35 34 33 33 32 31 31 30 30 30 29 29 28 28 28 28 27 28 27 30 29 28 28 28 28 28 28 29
42 41 40 39 38 38 38 38 37 36 35 34 34 33 33 33 32 31 30 30 29 29 29 29 28 28 27 27 27 27 27 26 27 27 28 27 28 27 28 28 28 28
41 40 39 38 38 37 37 36 34 34 33 33 33 32 32 32 31 30 29 30 28 28 27 27 27 27 27 27 27 27 26 27 27 27 27 27 27 28 28 28 28 28
39 38 38 37 36 36 36 35 33 33 32 32 31 31 31 30 29 29 28 28 27 27 27 27 27 27 27 26 26 26 26 26 26 26 26 26 27 27 28 28 27 27
38 37 37 36 35 35 34 34 33 32 31 31 31 31 30 29 29 28 28 27 27 27 27 26 26 26 26 25 25 25 25 25 25 25 25 25 25 27 27 27 26 26
37 36 36 35 35 34 34 33 32 32 32 31 31 30 30 29 28 28 28 27 27 27 26 26 25 25 25 25 24 24 24 24 24 24 23 24 24 24 25 25 25 24
36 35 35 35 34 33 33 32 32 31 31 30 30 29 29 29 28 28 27 27 26 25 25 25 25 24 24 24 23 23 23 25 23 22 22 22 22 22 22 24 23 22
35 34 34 33 33 32 32 31 31 31 31 30 29 29 28 28 28 27 26 26 25 25 24 24 24 23 23 23 22 22 22 22 22 20 20 20 19 20 20 21 20 20
34 34 33 33 32 32 31 31 31 30 30 29 29 28 27 27 27 26 26 25 25 24 24 24 23 23 22 22 22 21 20 20 20 20 19 19 18 18 19 19 19 18
34 33 32 32 32 31 31 30 30 30 29 28 28 27 27 26 26 26 25 25 24 23 23 22 22 22 22 21 20 20 19 19 19 19 18 18 18 18 20 19 18 18
33 33 32 32 31 31 30 30 30 29 28 28 28 27 26 26 26 25 25 24 23 22 22 21 21 20 20 19 19 19 19 19 18 18 18 17 18 19 18 18 18 18
33 33 32 32 31 31 31 30 29 28 28 27 27 26 25 24 24 23 23 22 22 21 21 20 20 19 18 18 18 18 18 18 17 17 17 18 19 19 19 19 19 19
34 33 32 32 31 31 30 29 28 27 26 26 25 24 23 23 22 22 21 21 20 20 20 19 19 18 18 18 18 18 18 18 17 17 18 18 18 19 19 19 19 19
33 32 32 31 30 29 28 27 26 25 24 23 22 21 21 20 21 20 20 20 20 20 20 20 19 19 19 18 18 18 17 16 17 17 18 18 18 18 19 19 19 19
32 31 31 30 29 27 26 25 24 22 21 20 19 19 19 20 20 19 19 19 19 20 20 19 19 19 20 22 22 18 17 18 18 18 18 18 18 18 19 19 19 20
30 29 29 27 26 25 23 22 21 19 18 17 16 16 17 17 17 17 17 18 18 18 18 19 19 19 22 24 25 25 22 19 19 18 19 19 18 18 18 19 20 21
29 27 26 24 23 21 20 19 18 17 16 15 15 15 15 16 16 17 17 18 18 18 18 19 19 21 23 24 25 24 24 21 20 19 19 20 20 19 19 19 20 20
26 25 23 21 21 20 18 17 16 16 15 14 14 15 15 15 16 16 16 18 18 18 18 19 19 21 23 24 24 24 24 23 21 21 20 19 20 20 20 19 19 19
24 23 21 20 18 17 16 15 14 14 14 14 15 15 15 15 15 15 17 17 18 18 18 18 18 21 23 24 23 24 24 24 22 21 21 20 20 20 20 20 20 19
23 21 19 17 15 15 14 13 13 13 13 14 14 14 14 14 14 15 16 16 17 17 17 17 17 20 22 23 23 24 24 24 22 21 20 19 20 20 20 20 20 21
21 18 16 14 14 13 13 13 13 13 13 14 14 14 15 15 15 15 15 15 16 15 15 14 16 20 21 22 23 23 24 22 21 19 19 19 19 20 21 22 22 22
20 17 15 13 13 13 12 12 12 12 13 14 13 14 14 14 14 15 15 14 14 14 13 13 14 17 20 21 22 23 22 20 20 19 19 19 19 20 21 22 22 23
18 16 15 13 12 12 12 13 13 13 13 14 13 13 13 13 14 13 14 14 13 13 14 12 13 16 19 20 22 23 23 20 20 19 18 19 19 21 21 22 23 26
17 16 15 13 12 13 13 12 12 12 13 13 13 14 13 13 13 12 12 13 14 13 15 14 13 14 18 20 22 23 22 20 20 19 18 18 19 20 22 22 23 24
18 17 15 14 13 12 12 12 13 12 12 12 12 12 12 12 12 12 11 11 13 12 12 14 14 14 16 20 21 22 23 21 20 18 17 18 19 20 19 21 21 21

ECMWFNIL_sfc_temp_003.txt.gz
Temp
44 44 44 43 43 42 41 40 40 39 38 38 37 36 36 35 34 34 33 32 32 31 30 30 30 30 30 29 29 29 28 27 27 27 27 27 27 26 28 27 27 27
44 44 43 42 41 41 41 41 40 39 38 38 37 36 35 34 34 33 32 31 31 30 30 30 29 29 28 29 27 28 27 27 26 29 27 26 27 27 27 27 27 27
43 42 42 42 42 41 40 40 39 39 38 37 36 35 34 34 33 32 31 31 30 29 29 29 28 28 28 27 27 27 27 26 25 26 26 26 26 27 27 26 26 26
43 43 42 41 41 39 39 38 37 37 36 35 34 34 34 33 32 31 31 31 30 29 28 28 28 28 27 27 27 27 26 26 25 26 25 26 26 26 26 26 26 26
42 41 41 40 39 38 38 37 37 36 35 35 34 33 33 32 31 30 30 29 29 28 28 27 27 27 27 26 26 26 25 25 25 25 25 25 26 25 26 26 25 25
41 41 40 39 38 37 37 37 37 35 35 33 33 33 32 32 31 30 29 28 28 28 27 27 26 26 26 26 25 25 25 25 24 24 24 24 24 25 26 26 24 24
40 39 39 38 37 37 37 37 36 35 35 34 33 32 31 31 30 29 29 28 27 27 27 26 26 26 26 25 25 24 24 23 23 23 23 23 23 23 23 23 23 22
39 38 37 36 36 36 36 36 35 35 34 32 32 31 31 31 30 29 28 28 27 27 26 26 26 25 25 25 24 23 23 24 23 23 22 21 22 21 22 23 22 22
37 36 35 34 35 35 35 34 34 33 33 32 32 30 30 30 29 29 28 28 27 26 26 25 25 25 24 24 23 23 22 21 22 21 20 20 20 21 21 21 20 20
36 35 34 34 34 34 34 33 32 32 31 32 31 30 30 29 29 29 28 27 26 26 25 25 24 24 23 23 23 22 21 22 22 21 21 20 20 20 20 20 19 18
35 34 34 33 34 33 33 32 31 31 31 31 30 29 29 29 28 28 28 27 26 25 25 24 23 23 22 21 21 22 22 22 21 21 21 21 21 20 21 19 18 18
35 34 34 34 34 33 32 32 31 30 30 30 30 29 28 28 27 27 27 26 25 25 24 23 22 22 21 21 21 21 21 21 21 21 21 20 20 20 19 18 18 18
35 34 34 34 33 33 32 31 30 30 29 29 29 28 27 26 26 25 25 24 24 23 22 22 22 21 21 21 21 21 21 21 20 20 20 20 20 19 19 19 19 19
35 35 34 34 33 31 31 30 30 29 29 28 27 27 26 25 24 24 23 23 23 22 22 21 21 20 20 21 21 21 20 20 20 19 19 19 19 19 20 20 20 20
34 34 33 32 31 30 29 29 29 28 27 27 26 25 25 24 23 22 21 21 21 21 20 21 20 20 20 20 20 20 20 19 19 18 19 18 18 19 20 20 20 20
33 32 32 31 30 29 29 28 27 26 25 24 24 23 22 22 21 21 21 20 20 20 20 20 20 20 22 25 23 19 19 19 18 18 18 18 18 18 19 20 20 21
32 31 30 29 29 29 27 26 25 24 23 22 21 20 20 20 21 20 20 20 20 19 19 19 20 20 24 26 26 25 20 18 17 18 18 19 19 18 18 19 20 21
31 30 29 28 27 27 25 24 23 21 21 20 19 19 19 20 20 20 20 20 20 20 19 19 19 22 25 26 27 27 24 19 19 18 18 19 19 19 20 20 21 21
29 28 27 26 26 25 24 22 21 21 20 19 19 20 19 18 19 19 19 19 19 19 18 19 19 24 26 27 27 27 28 24 20 20 19 20 20 21 21 21 21 21
28 27 27 26 25 23 22 21 20 20 20 19 19 18 17 18 18 17 18 18 18 18 18 19 19 24 26 27 27 28 28 27 23 21 21 21 21 21 21 21 21 20
28 26 25 24 23 21 20 20 20 19 18 17 17 17 17 16 16 16 17 17 18 18 18 18 19 24 26 27 27 27 27 27 23 22 22 21 21 21 21 21 21 21
27 26 24 22 21 20 20 20 19 18 16 16 16 16 16 16 16 17 16 17 18 17 17 17 19 24 25 26 26 26 27 24 22 21 20 19 19 20 21 21 22 21
27 25 23 21 20 19 19 19 18 16 16 16 15 16 15 15 14 15 16 16 16 16 16 15 17 22 25 25 25 26 25 21 21 20 19 19 19 20 21 22 22 22
26 24 22 20 19 18 18 18 17 17 16 16 15 14 14 14 14 14 15 16 15 15 16 15 15 20 23 24 24 25 24 20 20 19 18 19 19 21 21 22 22 24
25 23 21 19 18 19 18 17 16 15 15 15 14 14 14 14 13 13 14 14 15 15 18 15 14 18 22 22 23 24 23 21 20 18 17 18 19 19 21 22 22 24
23 22 21 19 18 18 17 17 16 14 13 14 14 14 13 13 13 12 11 12 14 14 16 16 14 14 18 22 23 24 25 21 19 18 17 17 18 19 18 20 22 22

ECMWFNIL_sfc_temp_006.txt.gz
Temp
45 44 44 43 43 42 41 40 40 40 39 39 38 38 37 36 36 35 34 33 32 32 31 31 31 30 31 30 29 29 29 28 28 27 27 27 26 26 27 25 25 25
45 44 44 43 42 42 42 42 41 40 39 39 39 38 37 36 35 35 34 33 32 31 31 31 31 30 30 29 29 29 28 28 27 29 27 27 26 26 26 25 25 25
44 43 43 43 43 42 41 41 41 40 39 39 38 37 36 36 34 34 33 33 32 31 31 31 30 30 29 29 29 29 28 27 27 27 27 26 26 26 25 25 25 25
44 44 43 43 43 42 41 39 39 39 38 37 37 36 36 35 34 33 32 32 32 31 31 30 30 30 29 29 28 28 27 27 27 26 26 26 26 25 25 25 25 25
43 43 43 42 42 41 39 39 38 38 37 37 35 34 34 33 33 32 32 31 31 30 30 30 30 29 29 28 28 27 26 26 26 26 26 25 25 25 25 25 24 24
42 42 42 41 40 39 38 38 38 37 36 35 35 34 34 33 33 32 32 31 30 30 30 29 29 29 29 28 27 27 26 25 25 26 25 24 24 25 26 25 24 23
42 42 41 41 39 38 38 38 37 37 36 36 33 34 33 33 32 32 31 31 30 30 29 29 29 28 28 27 27 26 25 25 25 25 24 23 24 23 24 24 23 22
41 40 40 39 38 37 38 37 36 36 35 33 34 34 33 33 32 32 31 31 30 29 29 29 29 28 28 27 26 26 25 25 24 24 23 22 22 21 22 22 22 21
41 39 39 38 38 37 37 37 36 35 34 34 34 33 33 33 33 32 31 30 30 29 29 29 29 28 27 27 26 25 24 23 23 22 22 21 20 20 20 20 19 19
39 39 37 37 37 38 37 37 36 35 34 34 34 33 32 32 32 31 31 30 30 29 28 27 27 26 26 26 25 24 23 23 22 21 21 21 20 20 20 19 19 18
38 38 37 37 37 38 37 36 35 34 33 34 33 32 32 31 31 31 30 30 29 28 27 26 26 25 25 24 24 23 23 22 21 21 21 20 20 20 21 19 19 18
38 37 37 37 37 37 37 36 35 34 33 34 33 32 31 31 30 29 29 29 28 27 26 26 25 25 24 23 23 22 22 22 21 21 20 20 20 20 21 20 20 20
38 38 38 38 37 38 37 35 34 34 33 33 32 32 31 30 29 29 28 29 27 26 26 25 24 24 23 22 22 22 21 21 21 21 21 20 20 20 20 20 20 19
38 39 38 38 38 37 35 34 34 33 33 33 32 31 30 30 29 28 28 27 26 26 25 24 24 23 22 22 22 22 22 22 20 20 19 19 18 19 19 18 18 18
39 38 37 36 35 35 34 33 33 32 32 31 30 30 30 29 29 28 26 25 25 24 23 23 23 23 23 23 22 22 21 20 19 19 19 18 18 18 18 18 18 19
38 36 35 34 34 33 33 32 31 31 30 29 29 29 28 28 27 26 26 25 23 22 22 23 23 24 25 27 26 21 20 19 18 17 17 18 17 17 18 20 20 20
36 35 34 33 33 33 31 30 30 29 28 27 27 26 26 26 26 25 24 24 23 22 22 23 23 23 28 29 29 27 21 19 17 17 17 18 18 18 18 19 20 21
35 33 32 32 31 30 30 29 28 27 27 26 25 25 25 24 24 24 24 23 23 22 22 22 22 26 30 30 30 28 24 19 18 17 17 18 19 19 20 20 20 21
33 32 31 30 30 29 28 27 26 26 25 24 24 24 23 22 23 23 22 22 22 21 21 22 21 27 30 31 30 29 27 22 18 18 18 18 20 20 20 20 20 21
32 31 30 30 29 28 27 26 25 25 25 25 24 23 23 23 22 22 22 21 22 21 21 21 20 27 31 31 31 30 28 23 17 18 19 19 20 20 21 21 21 21
31 30 30 29 28 27 26 26 25 25 25 24 24 23 23 22 22 21 21 21 20 20 19 19 19 27 31 32 31 31 29 24 18 19 20 20 21 22 22 22 22 22
31 29 29 28 28 26 26 26 25 25 24 24 23 23 23 23 22 22 20 19 19 19 18 17 19 27 31 32 32 32 30 23 21 20 20 21 21 22 22 23 22 21
31 30 29 27 27 26 25 25 25 24 24 24 22 22 22 21 20 20 20 19 18 17 17 16 17 26 31 32 32 32 30 23 22 21 21 20 21 21 22 22 22 21
31 30 28 27 26 25 25 25 25 24 24 23 22 21 20 20 19 18 17 17 17 17 17 16 16 25 31 31 31 32 29 22 21 20 19 19 20 21 21 21 21 23
29 29 29 27 26 25 24 24 24 23 22 21 21 21 20 19 17 16 15 15 16 16 21 18 16 24 31 31 31 31 28 22 21 19 18 19 19 19 20 20 20 23
28 28 28 26 25 25 24 24 22 20 19 19 18 18 17 16 15 15 14 14 15 15 18 17 16 20 26 31 30 31 29 22 21 19 17 18 18 18 17 19 20 21

ECMWFNIL_sfc_temp_009.txt.gz
Temp
45 45 44 43 43 43 42 41 41 41 40 40 39 38 38 38 36 36 35 34 34 33 33 32 32 31 32 31 31 31 31 31 30 29 29 29 28 28 28 27 27 27
44 44 43 43 42 42 42 42 41 41 40 40 40 39 38 37 36 36 35 34 33 33 32 32 31 31 31 31 30 31 30 29 29 29 29 28 28 28 27 27 27 26
44 43 43 43 43 42 42 41 41 41 40 40 39 38 37 36 35 35 35 34 33 33 32 31 31 31 31 31 30 31 30 29 29 28 29 28 27 27 27 26 26 26
44 44 43 43 44 42 42 40 40 40 39 37 38 38 37 36 35 34 34 34 33 32 31 31 31 31 30 30 30 30 29 29 29 28 28 27 27 27 26 26 26 25
43 43 43 43 43 42 41 40 39 39 38 39 37 36 35 35 34 34 34 33 33 32 31 31 30 30 30 30 30 29 28 28 27 27 27 26 26 26 26 26 25 25
42 43 43 43 42 41 40 40 40 39 38 37 37 36 35 35 34 34 33 33 32 32 31 30 30 30 30 29 29 29 28 27 26 27 27 26 25 26 26 26 25 24
42 42 42 42 41 40 40 40 39 39 38 38 36 35 35 34 34 34 33 33 32 32 31 31 30 30 29 29 29 28 27 27 26 26 26 25 25 25 25 25 25 24
42 42 41 40 40 39 39 39 39 38 38 36 36 36 35 34 34 34 33 33 32 32 31 31 31 30 29 29 29 28 26 26 25 25 25 24 24 23 24 24 24 23
42 41 41 40 40 40 39 40 39 38 37 36 36 35 35 35 34 34 33 33 32 32 31 31 31 30 29 29 29 28 27 26 26 25 25 23 23 23 23 23 22 22
40 41 39 39 39 40 39 40 39 38 36 36 36 35 34 34 34 34 33 32 32 31 31 31 30 30 29 29 29 28 27 26 25 25 25 24 24 23 22 22 22 21
40 40 39 39 39 40 40 40 39 38 36 36 36 35 34 34 33 33 33 32 32 31 31 30 30 29 28 28 28 28 28 27 26 25 24 24 23 23 23 22 22 21
40 39 39 39 39 40 40 39 39 37 35 36 36 35 34 34 33 33 33 32 32 32 31 31 30 29 28 28 27 27 26 26 25 24 24 23 22 22 22 22 21 20
40 40 40 40 40 40 40 39 37 36 35 35 35 34 33 32 33 32 32 32 32 32 31 31 30 29 28 28 27 26 25 24 24 23 23 22 21 21 21 21 20 20
41 41 41 41 40 39 38 37 36 35 34 34 33 33 33 33 32 32 32 32 32 31 31 30 29 28 28 27 26 25 24 24 23 22 21 21 20 20 20 20 20 19
42 41 40 39 38 37 36 35 35 35 34 33 33 33 33 32 32 32 30 30 30 30 29 29 29 28 28 27 25 24 24 23 22 21 21 20 19 19 19 19 18 18
41 40 39 37 36 36 36 35 34 33 32 32 31 32 32 31 31 31 30 30 29 29 28 28 28 28 29 30 29 25 24 23 21 20 20 20 19 18 18 18 18 18
39 38 38 36 36 36 34 33 33 31 31 30 30 29 29 30 30 30 30 30 30 29 27 27 27 27 30 32 31 30 25 22 21 20 20 19 18 18 17 17 17 18
38 37 36 36 35 34 33 32 32 30 30 29 29 28 29 29 30 30 30 30 29 28 27 27 27 29 32 32 32 31 28 22 21 19 19 19 18 18 18 17 17 17
36 35 34 33 33 33 32 31 30 30 29 28 28 29 29 28 30 29 29 29 29 28 27 27 27 30 32 33 33 32 30 25 20 19 19 18 18 18 18 18 18 18
34 33 33 33 32 31 31 30 30 29 29 29 29 28 28 28 28 28 28 28 28 27 27 27 26 30 33 33 33 33 31 26 19 19 19 19 19 19 19 19 19 18
33 33 32 31 30 30 30 29 29 29 28 28 28 28 27 27 27 27 27 26 26 27 26 26 26 31 33 34 34 33 32 26 19 19 18 18 20 20 20 19 19 20
30 30 30 28 29 29 29 29 29 29 28 28 28 28 27 27 27 27 26 25 26 25 25 24 25 31 33 34 34 34 32 22 19 18 18 18 18 19 20 20 20 20
31 31 29 28 28 28 28 28 28 28 28 28 27 27 26 26 26 26 26 25 25 24 24 23 23 29 33 34 34 35 30 19 18 18 17 17 18 19 20 20 21 21
31 29 29 29 28 28 28 29 29 28 28 27 26 26 25 26 26 25 25 24 24 23 24 23 22 28 33 34 34 35 27 19 18 18 17 17 18 19 20 20 21 24
30 30 30 29 28 29 28 28 28 28 28 26 27 26 26 26 24 24 23 23 23 23 25 24 21 26 32 34 34 34 25 20 19 19 18 18 19 19 20 19 20 23
28 30 30 29 29 28 27 28 27 26 25 25 25 26 25 24 23 23 22 21 21 21 22 23 21 22 29 34 34 34 28 22 21 20 18 18 19 18 17 18 19 21

ECMWFNIL_sfc_temp_012.txt.gz
Temp
45 45 45 44 44 44 42 41 41 41 40 40 39 39 39 39 38 37 36 36 36 36 35 34 34 33 33 32 32 31 31 31 30 29 29 30 29 29 29 28 28 28
44 44 44 43 42 42 42 42 41 42 41 40 41 40 39 38 37 37 36 36 35 35 35 34 33 33 32 32 31 31 31 30 30 30 29 29 29 28 28 28 28 27
43 43 43 42 43 42 41 41 41 41 41 41 40 39 38 37 36 36 36 36 35 35 34 34 33 33 32 32 31 32 31 30 30 29 29 29 28 28 28 27 27 27
43 43 43 43 42 41 41 40 40 40 39 38 38 38 37 37 36 35 35 35 35 34 34 33 33 33 32 32 31 32 31 31 30 29 28 28 27 28 27 27 27 27
41 42 42 42 42 41 40 39 39 39 38 38 37 36 36 35 35 35 35 35 34 34 33 32 32 32 32 31 31 31 30 30 29 28 28 28 27 27 27 27 26 26
40 41 41 41 40 40 40 40 39 38 38 37 38 37 36 36 36 35 35 34 34 34 33 32 32 32 31 31 31 32 30 29 28 28 28 27 26 27 27 27 26 26
40 39 40 40 38 39 39 39 39 38 38 38 35 36 36 35 35 35 35 35 34 34 33 32 32 31 31 31 31 31 30 30 28 28 28 27 26 26 26 26 26 26
39 38 39 38 39 38 39 39 38 38 38 36 36 36 36 35 35 35 35 35 34 33 33 33 32 32 31 31 31 31 29 29 28 27 27 26 25 25 25 26 26 25
37 38 37 37 38 39 39 39 39 39 37 37 36 35 35 36 35 35 35 34 34 34 33 33 32 32 32 31 31 31 30 29 28 27 27 26 25 25 25 25 25 24
38 39 37 38 38 40 40 40 41 40 38 38 37 36 35 35 35 35 34 34 34 33 33 33 32 32 31 31 31 31 30 29 28 28 28 27 27 26 25 25 25 24
39 39 38 38 39 40 40 41 41 41 39 38 37 36 35 35 35 35 34 33 33 33 33 33 33 32 31 31 31 32 31 30 28 28 28 28 27 27 27 25 25 25
38 38 38 39 39 40 40 41 40 39 38 37 37 37 35 35 35 34 34 34 34 34 34 33 33 32 32 31 31 31 30 30 29 28 28 28 27 27 26 25 25 25
39 39 39 39 40 40 41 40 39 39 38 37 37 37 36 35 35 35 35 35 35 35 34 34 33 33 32 31 31 31 30 29 28 28 28 27 27 26 26 25 25 25
39 40 40 40 41 40 39 39 39 38 38 37 36 36 36 35 35 35 35 35 35 35 35 35 34 33 32 31 31 31 30 29 29 27 27 27 26 25 25 25 25 24
40 40 40 40 40 39 38 38 38 38 37 37 36 36 36 36 35 35 35 34 35 35 35 34 33 33 32 31 31 30 30 29 28 27 27 26 25 24 24 24 24 23
40 39 39 39 38 38 38 38 38 37 36 35 35 35 35 35 34 34 35 34 34 34 34 33 33 33 33 34 34 31 29 29 27 26 26 26 25 24 23 23 23 23
38 38 38 37 38 37 36 36 36 36 35 34 33 33 33 33 33 33 33 34 33 33 32 32 33 33 34 36 36 35 31 28 27 26 26 26 25 24 22 22 21 21
37 37 36 36 36 35 34 34 34 33 33 33 32 31 32 31 32 33 33 34 33 33 32 32 32 34 35 36 36 36 33 29 28 26 26 26 25 24 23 22 19 19
36 34 34 34 34 34 33 32 31 32 31 31 30 31 31 31 32 33 32 33 33 32 32 32 32 35 36 36 36 36 35 32 28 26 25 25 25 24 23 22 19 19
34 33 33 33 33 31 31 30 29 31 32 32 31 30 30 31 31 31 31 31 32 32 32 31 31 34 36 36 36 36 35 33 27 26 25 25 25 24 22 20 20 19
33 32 32 31 31 29 28 29 30 31 31 31 31 31 30 30 30 30 30 30 30 31 31 30 30 34 36 36 36 36 36 33 26 26 25 24 23 23 22 21 21 21
32 31 31 30 29 27 26 28 28 29 29 30 29 30 30 30 31 30 30 29 30 30 30 29 30 34 35 36 36 36 36 30 25 24 23 23 22 22 22 22 22 21
31 30 29 29 29 27 26 27 28 28 28 28 27 28 29 29 29 30 30 29 29 28 28 28 27 32 35 35 36 36 34 27 24 23 22 22 21 22 22 22 22 21
29 28 28 28 28 27 27 28 27 27 27 28 28 28 28 28 29 29 29 29 28 27 28 27 26 30 34 35 36 36 33 24 23 22 21 21 20 21 21 21 22 24
29 28 28 28 27 28 27 27 28 28 29 28 28 28 28 28 27 28 27 27 28 27 29 28 25 28 34 35 36 36 32 23 23 22 20 20 19 18 21 21 22 24
30 29 28 27 27 27 27 26 26 25 26 27 27 27 27 27 26 27 26 26 26 26 26 28 26 26 31 35 36 36 33 24 23 22 19 19 18 19 18 19 21 22

ECMWFNIL_sfc_temp_015.txt.gz
Temp
46 47 47 47 47 47 46 45 45 45 44 44 44 43 43 43 43 42 42 42 42 42 42 42 41 40 40 39 39 40 39 39 40 40 38 38 38 37 37 37 38 39
45 46 46 46 46 45 45 45 45 45 45 44 45 44 44 43 43 42 41 41 41 41 42 41 41 40 39 39 38 38 38 39 38 38 37 37 38 37 37 37 37 38
44 44 44 44 45 44 44 43 44 45 45 45 44 44 43 43 42 41 41 41 41 41 41 40 40 40 39 39 38 39 38 38 38 37 37 37 37 37 38 36 37 35
43 43 43 43 44 43 43 42 42 43 43 42 43 43 42 41 41 40 40 39 40 40 40 40 39 39 39 39 38 39 39 38 39 37 37 37 37 37 36 36 36 35
41 41 41 42 42 42 42 41 41 42 42 42 42 41 41 40 40 39 39 39 40 39 39 39 39 39 39 38 38 38 38 38 38 36 37 36 36 36 35 35 35 34
40 40 41 41 41 41 41 40 41 41 41 40 41 40 41 40 40 39 39 39 39 39 39 39 38 38 38 38 38 38 38 38 37 35 36 36 35 35 34 34 34 34
40 40 40 41 41 41 41 41 41 41 41 41 41 40 40 39 40 39 39 39 39 39 39 38 38 37 37 37 37 38 38 38 36 35 35 36 34 33 34 34 34 34
39 39 39 40 40 40 40 41 41 41 41 40 40 40 40 40 40 39 39 39 39 39 39 38 38 38 37 37 37 37 37 37 35 34 35 35 33 32 33 33 34 33
39 39 39 39 39 40 40 41 42 42 41 40 41 41 40 40 40 40 39 39 39 39 38 38 38 38 38 37 37 37 37 36 35 34 35 34 32 32 32 33 33 33
40 40 39 39 39 40 40 41 41 42 41 40 41 41 40 39 40 40 39 39 38 38 38 38 37 38 37 37 37 37 37 36 35 35 35 35 33 33 32 32 32 32
41 40 39 39 39 40 40 41 41 41 42 41 41 41 40 39 38 39 39 39 38 38 38 38 37 37 37 37 37 38 38 38 36 35 35 35 35 34 33 32 32 32
40 40 41 40 40 40 40 41 41 41 41 41 41 41 41 40 39 39 39 39 39 39 39 38 38 38 37 37 37 37 38 38 37 36 35 36 35 35 34 33 32 32
39 39 40 40 40 41 41 41 41 41 41 41 41 40 40 40 39 39 39 39 39 39 39 39 38 38 38 37 37 37 37 37 37 36 36 36 36 35 34 33 34 34
38 38 39 39 39 40 40 40 40 40 40 41 40 39 39 40 40 38 39 39 39 39 39 39 38 38 38 38 37 37 37 37 37 36 36 36 36 35 35 34 34 34
38 38 38 38 38 38 38 39 39 39 40 40 40 39 39 39 39 39 38 38 38 38 38 38 38 38 38 38 37 37 37 37 36 36 36 35 35 34 34 33 33 34
37 37 37 37 37 37 37 38 38 38 38 37 38 38 39 39 38 38 38 37 37 37 37 38 38 38 37 37 37 37 36 36 35 35 34 35 34 33 32 33 32 33
36 35 35 35 36 36 35 35 36 35 35 35 36 36 36 37 37 37 37 37 36 36 36 36 37 38 37 38 38 38 37 36 33 33 33 34 34 33 31 31 31 32
35 34 34 34 34 34 34 34 34 34 34 34 34 34 35 35 35 36 36 36 36 36 36 36 37 37 38 38 38 38 37 35 34 33 32 33 33 33 32 31 30 30
33 33 32 32 32 33 33 33 33 33 33 33 33 34 34 34 35 35 35 36 36 35 35 36 36 38 38 38 38 38 38 36 34 32 32 31 33 32 32 31 30 28
32 31 31 31 31 32 32 32 32 32 33 33 33 33 33 33 33 34 34 35 35 35 35 36 36 37 38 38 38 38 38 37 33 32 32 31 32 32 31 31 30 28
30 30 30 31 31 31 30 30 31 31 32 32 33 33 32 32 33 32 32 33 33 34 34 34 36 37 38 38 38 38 38 38 34 32 32 31 32 32 31 31 29 28
28 28 30 30 30 30 30 30 30 31 31 32 32 32 32 31 32 32 31 32 32 32 33 33 35 37 37 38 38 38 39 36 34 32 31 30 29 31 31 30 29 27
26 27 29 30 30 29 28 29 29 30 31 31 30 30 30 30 30 31 31 31 31 31 31 31 32 35 37 37 38 38 38 35 34 32 31 29 30 30 29 29 27 27
25 26 29 29 28 27 27 28 29 30 30 30 29 29 29 29 30 30 30 30 30 30 30 30 31 33 36 37 37 38 37 34 33 32 29 28 27 27 27 26 26 27
23 26 27 26 26 25 26 26 28 29 29 29 28 28 28 30 30 29 29 29 29 29 31 30 30 32 34 36 37 37 37 35 33 31 28 27 26 23 25 25 25 27
22 24 24 24 23 23 24 25 27 28 28 28 28 29 29 30 29 28 27 28 29 29 29 30 30 30 31 35 36 37 37 35 33 30 27 25 24 22 21 22 23 25

ECMWFNIL_sfc_temp_018.txt.gz
Temp
53 54 53 54 54 55 55 54 55 54 54 55 54 54 53 53 53 51 51 51 51 51 51 52 52 51 51 51 51 52 52 51 51 51 50 50 50 50 49 50 51 53
51 52 52 53 53 54 54 54 54 54 54 54 54 54 54 53 52 51 50 50 50 50 51 51 51 51 50 50 50 49 50 50 49 49 49 48 49 49 49 49 49 51
50 50 50 50 51 52 52 53 53 53 53 54 54 54 53 53 51 51 50 50 49 49 50 50 50 50 49 49 49 48 49 48 48 49 48 48 49 49 49 49 49 49
49 49 49 49 50 50 51 51 52 52 53 52 52 53 53 51 51 50 49 47 48 48 49 49 48 49 48 48 47 48 48 48 49 49 48 48 48 49 49 49 49 49
48 48 49 49 49 50 50 49 49 50 51 51 51 51 50 50 49 49 49 48 48 48 48 48 48 48 47 47 47 47 47 47 48 48 47 47 48 48 48 48 48 47
48 48 49 48 48 48 48 49 49 50 50 49 50 50 49 48 48 48 48 47 48 48 47 47 47 47 47 46 46 46 47 47 48 47 46 46 47 47 46 47 47 47
47 47 47 48 47 48 47 48 48 49 49 50 50 49 50 49 48 47 47 47 47 47 47 47 47 46 47 46 46 46 47 47 47 46 45 46 47 46 46 46 47 47
47 47 47 48 47 48 47 47 47 48 48 49 48 49 49 48 48 48 48 48 47 47 47 47 46 46 46 46 45 45 45 45 45 45 45 44 45 45 45 44 45 45
45 45 46 46 46 47 47 47 48 48 48 48 48 48 49 49 48 48 48 47 47 47 47 46 46 45 45 45 45 45 45 44 44 44 43 42 43 43 44 44 42 43
42 43 44 45 44 45 45 46 46 47 47 47 47 48 48 48 48 47 47 47 46 46 46 46 46 45 45 44 43 43 44 44 44 43 42 42 42 44 44 43 42 41
41 41 41 42 42 43 43 44 44 45 46 46 47 46 46 47 47 47 46 46 45 45 45 44 44 44 43 42 43 43 43 44 44 44 43 43 43 44 42 42 41 40
42 41 40 39 40 41 42 44 44 44 43 44 45 44 44 44 44 45 45 44 45 45 45 45 45 44 42 41 40 41 41 42 43 43 42 42 43 44 44 43 41 41
43 41 41 41 40 39 40 41 42 43 43 43 43 43 44 44 44 43 44 44 44 44 44 44 45 44 43 43 42 41 41 41 41 42 42 41 41 42 43 43 43 42
43 42 42 42 41 41 39 39 39 40 41 42 42 42 42 43 44 44 44 43 43 43 44 44 44 43 43 43 43 42 42 41 42 41 41 41 41 41 41 41 42 42
42 42 42 41 41 40 40 38 37 38 38 39 41 41 42 43 44 44 44 44 43 42 42 43 42 42 43 42 42 41 41 41 41 41 41 41 41 41 41 41 41 42
41 41 40 39 39 39 39 39 38 37 37 37 37 39 40 41 42 42 43 42 43 43 42 41 40 41 40 40 40 40 40 39 40 39 40 41 40 40 40 40 41 41
40 39 38 36 37 37 36 36 36 36 35 35 35 36 38 39 39 40 41 42 42 42 42 42 41 40 39 40 40 40 40 40 38 38 39 40 40 40 39 39 40 40
38 36 35 34 34 33 34 35 35 34 34 34 34 35 36 36 36 37 38 40 40 41 41 41 42 40 40 40 40 40 40 38 37 37 37 39 39 40 40 40 40 39
36 33 31 30 31 32 33 34 34 34 33 33 33 34 35 34 36 36 36 37 38 38 39 40 41 40 40 40 40 40 40 39 37 36 36 37 38 39 39 40 40 39
35 31 30 29 30 30 32 33 33 32 33 33 34 34 33 34 34 34 35 36 37 37 38 39 40 39 40 40 39 40 40 39 37 36 36 37 38 38 38 39 39 38
31 30 28 28 27 29 30 31 31 31 31 31 33 33 32 33 33 33 33 34 34 35 35 37 38 38 39 39 39 40 40 40 37 36 36 36 37 38 37 38 39 38
30 27 26 26 26 26 28 29 29 29 28 30 30 31 33 34 34 34 33 33 34 34 35 34 37 38 38 38 39 39 40 38 37 36 36 36 36 38 38 38 38 38
30 27 25 24 24 24 25 26 27 27 27 28 27 29 30 31 31 32 33 33 33 33 33 34 35 36 37 38 38 39 38 37 36 36 36 35 37 38 38 38 38 38
27 25 23 22 22 22 23 25 26 26 25 26 26 26 27 29 30 31 32 32 32 32 33 33 33 35 36 37 37 38 37 36 37 37 35 36 36 38 38 37 36 35
26 24 22 21 21 21 22 23 23 23 24 24 24 25 25 27 29 30 31 32 32 32 33 32 32 33 35 36 36 37 37 36 36 36 35 35 36 36 37 37 36 35
24 21 21 20 19 20 21 22 22 22 21 21 21 23 23 25 27 29 29 30 31 31 32 33 33 33 34 35 36 36 37 36 36 35 34 34 35 35 33 32 33 34

ECMWFNIL_sfc_temp_021.txt.gz
Temp
52 52 52 52 53 53 54 53 54 54 54 55 55 55 56 57 57 55 54 54 54 54 53 54 54 53 53 54 54 54 54 53 54 54 53 53 53 52 52 53 54 55
51 51 51 51 51 52 52 53 52 53 53 53 54 55 55 56 56 55 54 53 53 52 53 53 53 53 52 52 52 52 52 52 51 52 52 51 51 51 51 51 52 53
50 50 50 49 49 50 50 52 52 52 52 53 53 54 53 54 54 54 54 53 52 52 52 52 52 52 52 51 51 51 51 50 50 51 50 50 50 51 51 51 51 51
49 50 49 49 49 49 50 50 50 51 51 51 51 52 52 52 53 52 52 50 50 50 50 50 50 51 50 50 49 49 49 50 50 50 49 50 50 50 50 50 50 50
48 48 49 49 49 50 50 49 48 49 49 49 50 51 51 51 50 49 49 49 49 49 49 49 49 49 49 48 48 48 48 48 49 49 48 48 49 49 49 49 49 49
46 47 48 48 48 48 48 48 48 48 48 48 48 49 49 49 49 48 48 48 49 48 48 48 47 48 48 48 47 47 47 47 48 47 47 47 48 49 48 48 48 47
44 44 44 46 46 47 46 47 47 48 47 48 48 47 48 48 48 48 48 48 48 48 47 47 47 47 47 47 47 46 47 47 46 47 46 46 47 47 47 47 47 47
44 44 44 44 44 45 44 44 45 46 46 46 46 47 47 47 47 47 47 48 47 47 47 47 47 47 47 47 46 45 45 45 45 45 45 45 45 45 47 46 46 46
44 44 44 43 43 43 43 43 44 44 45 44 45 46 46 46 46 46 46 46 46 46 46 46 46 46 46 46 45 45 45 44 44 44 44 44 44 45 46 46 46 45
46 45 44 43 42 43 42 42 43 43 43 42 43 44 44 45 45 45 45 45 45 45 45 46 46 46 46 46 45 45 44 44 45 44 44 44 44 45 45 45 45 45
45 45 44 44 43 43 42 42 42 42 42 42 42 41 43 44 44 44 44 44 44 44 45 45 45 46 45 45 45 45 45 44 44 44 44 44 44 45 43 45 45 44
44 43 43 43 43 43 43 42 42 41 41 41 42 41 42 42 42 42 43 43 43 44 44 45 45 45 45 45 45 45 44 44 44 44 44 44 44 44 44 45 44 45
43 43 42 42 41 41 42 42 42 41 41 40 41 40 40 41 41 41 41 41 42 42 43 43 43 44 44 44 44 44 44 43 43 43 43 44 44 44 44 44 44 44
42 42 42 41 41 41 40 40 40 41 40 40 40 39 39 40 40 40 41 41 41 41 42 42 42 43 43 44 44 44 43 42 42 41 42 42 42 43 43 43 43 44
41 42 42 41 40 39 38 38 38 39 39 39 39 39 39 39 40 39 39 39 40 40 40 41 40 40 41 42 42 42 42 41 40 40 40 40 41 41 42 42 43 43
41 41 40 39 38 37 37 36 36 37 37 37 37 38 38 39 39 39 39 38 38 39 40 39 39 39 39 40 40 40 40 39 39 39 39 40 40 39 40 41 41 42
39 39 39 37 37 36 33 33 34 34 34 35 35 35 36 37 37 38 38 39 38 38 38 39 39 39 39 41 41 41 40 39 38 37 38 39 39 39 39 40 41 41
38 38 37 35 34 32 31 31 31 31 33 34 34 33 34 35 35 36 37 38 38 38 38 38 38 39 40 41 41 41 40 38 37 37 37 38 38 38 39 39 40 41
37 35 34 33 32 32 30 30 29 30 31 32 32 33 33 32 34 34 35 36 37 36 36 37 38 39 40 40 40 41 41 40 37 36 36 36 38 38 39 39 39 39
35 33 33 32 32 31 30 29 28 28 30 31 31 31 31 31 31 32 33 34 35 35 36 36 37 38 39 39 39 39 40 40 36 36 35 35 36 37 38 39 39 39
33 32 32 32 31 30 28 27 27 27 27 28 30 30 29 29 30 29 30 31 32 33 33 34 36 38 38 39 39 39 39 39 36 36 36 35 36 37 37 37 38 39
32 31 31 31 30 28 27 26 26 25 25 27 28 29 29 29 29 29 28 29 30 30 30 31 34 37 37 38 38 38 39 37 36 35 35 35 35 36 36 37 38 38
32 31 30 29 28 26 25 25 24 23 24 25 25 26 26 26 25 26 27 27 27 28 29 29 31 34 36 37 37 38 37 35 35 35 35 35 35 36 36 37 37 37
31 29 28 27 26 24 23 23 24 23 23 24 23 23 24 24 24 24 24 25 25 26 27 28 29 32 35 36 36 37 36 34 34 34 34 34 35 36 37 37 37 36
28 27 26 25 24 23 22 21 21 21 22 22 23 23 22 22 22 22 22 23 23 24 27 27 27 31 34 35 36 36 36 34 34 34 33 33 34 35 37 37 37 37
25 23 23 23 22 21 21 20 21 20 20 20 21 22 21 21 20 20 18 19 21 21 22 23 24 26 30 33 34 35 36 35 34 33 32 32 33 34 34 35 36 37

ECMWFNIL_sfc_temp_024.txt.gz
Temp
45 44 43 44 43 43 44 43 44 44 44 43 42 44 44 45 45 46 43 43 43 43 43 42 42 42 44 42 42 43 44 44 44 44 44 45 46 46 46 45 44 44
43 43 43 43 43 43 43 44 43 43 43 43 43 43 44 44 44 44 44 42 42 42 42 42 41 41 40 40 40 41 42 42 42 43 43 41 43 43 45 45 44 44
42 42 42 42 42 42 43 43 43 43 42 43 43 43 43 44 43 43 43 42 42 42 41 41 40 39 39 38 38 39 40 39 40 40 40 40 41 42 43 43 45 44
40 40 40 40 41 41 41 41 42 42 42 42 42 43 43 43 42 41 41 40 40 40 39 38 38 38 37 37 37 39 38 39 39 39 40 40 39 40 41 41 42 43
37 38 39 39 39 39 40 39 39 40 40 41 41 42 41 41 40 38 38 38 37 38 38 38 37 36 36 36 35 37 37 39 37 37 38 38 39 39 40 39 40 40
34 35 36 37 37 38 38 37 38 38 38 38 39 39 39 38 38 38 38 38 38 38 37 37 36 36 35 35 35 37 37 38 37 36 37 38 38 39 39 39 39 39
33 32 33 33 33 34 35 35 37 37 37 37 36 36 36 37 37 37 37 37 38 38 37 37 37 37 36 35 34 35 36 35 35 35 36 37 37 38 38 37 38 39
33 33 33 31 31 31 33 32 34 34 35 36 36 37 36 36 36 36 36 35 35 36 36 37 37 37 36 36 36 36 35 37 37 35 35 36 35 36 37 38 38 38
32 32 32 32 32 31 31 31 31 33 34 35 36 36 37 36 36 36 36 34 34 34 34 35 35 35 36 36 36 35 36 36 36 35 36 36 36 36 37 37 37 38
31 32 31 31 31 31 31 31 31 31 31 31 32 33 34 35 35 36 36 35 35 34 34 34 35 35 35 35 35 36 36 36 36 36 36 36 36 37 37 37 37 38
31 32 31 31 30 30 30 30 30 31 30 30 30 30 30 32 33 32 33 34 34 34 34 34 34 34 35 36 37 36 36 36 35 35 36 36 37 37 38 37 38 38
32 33 33 32 31 30 30 30 31 29 29 30 30 30 29 29 30 31 31 32 32 32 33 33 33 33 34 36 37 37 37 37 36 36 36 37 37 38 38 38 38 38
30 31 32 32 31 30 30 29 29 30 30 31 31 31 30 30 30 30 31 31 31 31 32 32 33 33 34 34 35 36 36 37 37 37 37 37 38 38 39 39 39 39
31 31 32 32 31 29 29 28 29 28 28 29 29 30 30 30 30 30 30 30 31 31 32 32 32 32 32 33 34 34 35 36 36 36 37 37 37 38 38 38 39 39
30 31 32 32 32 31 31 30 29 29 28 28 28 29 31 30 30 30 30 30 30 30 31 32 32 33 33 33 33 34 34 34 35 35 36 36 36 37 38 38 38 38
31 31 31 31 31 31 30 30 29 28 28 27 28 28 29 29 29 30 29 29 30 30 30 31 32 33 35 38 39 36 34 34 34 34 34 35 35 35 36 37 38 38
30 30 30 30 30 30 28 28 28 28 27 26 27 27 27 28 29 28 29 29 29 30 30 31 32 33 36 39 40 41 38 34 33 33 33 34 34 34 34 35 36 37
29 29 29 29 28 28 28 28 27 26 26 25 26 25 26 27 27 27 28 28 29 29 29 30 31 34 37 38 39 40 39 36 33 33 33 33 33 33 34 34 35 36
29 28 28 28 27 28 27 27 26 25 25 25 24 25 25 25 26 26 26 27 28 27 28 29 30 34 36 38 38 39 39 38 34 33 32 32 33 33 33 34 34 34
28 26 27 27 28 27 27 26 26 25 25 24 24 24 24 24 24 24 25 26 26 27 27 28 28 32 35 36 37 37 38 38 34 33 32 32 32 33 33 33 33 33
26 26 26 26 26 26 26 25 25 25 24 24 23 23 22 22 23 22 23 24 24 25 25 26 28 32 33 34 35 36 37 37 33 33 32 32 32 33 33 33 33 34
26 25 25 25 25 24 24 24 24 24 23 24 23 23 23 22 22 22 21 22 23 23 24 24 26 31 32 33 34 34 36 33 32 31 31 31 31 32 32 33 33 33
24 24 23 23 23 22 21 21 21 21 22 23 21 21 21 20 20 20 21 21 21 22 22 22 23 27 30 31 32 33 32 30 30 30 30 30 31 31 32 33 33 33
22 21 20 20 19 18 18 19 20 20 20 20 19 19 19 19 19 19 20 20 20 20 21 20 21 25 29 29 30 31 30 27 28 28 28 29 29 31 32 32 33 34
19 18 17 17 16 16 15 15 15 15 17 18 17 17 17 18 18 18 18 19 19 19 23 22 20 23 27 28 29 29 28 25 26 26 26 27 29 29 31 31 32 33
15 14 14 13 12 12 12 12 13 13 13 14 14 14 14 15 16 16 15 16 17 18 18 19 18 19 21 26 26 27 28 25 23 23 22 24 27 28 28 29 31 31

ECMWFNIL_sfc_temp_027.txt.gz
Temp
39 39 39 39 39 39 39 39 39 39 39 39 38 39 39 40 40 40 40 40 40 40 40 40 39 39 41 39 39 40 40 40 40 40 39 39 38 39 41 41 40 41
38 38 38 38 38 38 38 38 37 37 37 38 38 38 39 39 39 39 39 39 39 39 39 40 39 39 38 39 38 38 39 38 38 40 39 37 38 38 39 39 40 41
37 36 36 36 36 35 36 36 36 36 36 36 36 37 37 38 38 38 38 38 37 38 38 38 38 38 37 37 36 37 37 37 37 38 37 37 38 37 38 38 39 39
37 36 36 36 36 35 35 35 35 35 35 34 35 35 35 36 35 35 36 36 36 36 36 36 36 36 36 36 36 36 36 36 36 36 36 37 36 36 37 37 37 38
32 34 34 35 36 38 38 36 35 35 34 34 34 34 34 33 32 32 33 34 34 35 37 37 36 36 35 35 35 35 36 36 36 35 35 35 37 36 37 36 36 36
30 30 30 30 31 32 36 35 36 36 35 34 34 34 33 33 33 32 32 31 32 33 34 36 37 38 38 36 36 36 36 35 36 36 35 35 36 36 36 36 36 36
31 30 31 29 31 29 32 31 32 34 34 32 34 35 33 33 32 32 33 33 33 33 32 32 33 35 36 37 36 36 36 36 36 35 34 34 34 35 35 35 35 35
30 29 29 28 29 28 29 28 28 30 30 30 31 32 32 31 32 32 32 31 31 32 33 33 33 32 33 35 35 35 36 37 37 36 35 35 34 34 35 35 35 35
29 29 29 29 29 29 29 28 28 28 28 28 29 30 30 30 30 30 31 30 31 31 31 32 32 32 34 34 34 34 35 35 36 35 36 36 36 36 36 36 34 34
28 28 28 28 28 28 27 28 27 28 28 28 29 28 29 30 29 30 30 29 30 30 30 31 31 31 32 32 33 34 34 34 35 35 35 35 35 35 36 37 36 36
28 28 28 28 28 29 29 29 27 28 27 27 28 29 29 29 30 29 29 29 30 30 30 30 31 31 31 31 32 32 33 34 34 34 34 35 35 34 35 35 35 36
27 27 28 27 27 28 29 29 29 28 29 28 27 28 29 29 29 29 29 29 29 29 29 30 30 30 31 31 31 31 31 32 32 33 34 35 34 34 34 34 34 34
29 29 29 29 28 29 29 28 28 28 28 28 28 27 28 29 30 30 30 29 29 29 29 30 30 30 30 31 31 31 31 31 31 31 32 33 34 35 34 34 34 34
29 29 30 30 30 30 30 29 29 28 28 28 27 27 28 28 28 29 29 29 30 30 30 29 29 29 30 30 30 30 30 30 31 31 31 31 32 32 33 33 34 34
29 29 29 29 29 30 30 30 30 29 28 28 27 27 28 27 27 28 28 28 28 29 29 29 29 30 30 31 30 30 31 30 30 30 31 31 31 31 32 32 32 33
28 28 29 29 29 30 30 30 29 29 29 29 28 27 26 26 26 26 26 26 26 27 28 29 29 30 32 34 35 33 32 32 32 31 31 31 31 31 31 32 32 32
29 29 29 29 29 29 28 28 28 28 28 27 27 27 27 27 27 26 26 26 26 26 26 27 28 29 32 34 35 36 34 32 31 31 32 32 31 31 31 32 32 32
28 28 27 28 27 26 26 26 26 26 26 26 26 26 27 26 26 26 26 26 26 26 25 26 26 30 32 33 34 34 35 32 31 31 31 32 32 31 32 32 32 32
26 25 25 25 25 25 24 24 24 24 24 24 24 25 24 24 25 25 25 25 25 24 24 25 25 29 31 32 32 33 33 33 30 30 30 31 31 31 32 32 32 32
24 22 23 23 23 22 22 22 22 22 23 23 23 23 22 22 23 22 23 23 23 23 23 24 24 27 30 30 31 31 32 32 29 29 29 30 30 31 31 31 32 31
22 21 20 20 20 20 20 20 20 20 20 20 21 20 20 20 20 20 20 21 21 21 21 21 23 27 28 29 30 31 31 31 27 27 28 28 29 30 30 31 31 32
19 18 18 17 18 17 17 17 17 17 17 18 18 18 18 18 18 18 18 18 18 18 18 18 20 25 26 27 28 29 30 26 25 25 25 25 26 27 28 30 31 31
17 16 15 14 14 14 13 13 13 13 13 14 13 13 13 13 14 14 15 15 15 16 15 16 17 21 24 26 26 28 26 23 23 23 23 23 24 25 26 27 28 29
14 12 11 11 10 9 9 10 11 11 10 11 10 10 10 11 11 11 12 12 12 12 13 13 14 18 22 23 24 24 24 20 20 20 20 21 21 22 23 24 26 28
11 10 9 8 7 7 7 7 7 7 8 9 8 8 8 9 9 8 8 9 10 11 14 12 10 13 17 19 20 21 20 18 18 18 18 19 20 20 22 22 23 25
8 7 7 6 6 6 6 6 7 6 6 6 6 6 6 6 7 6 6 6 8 8 8 9 8 9 12 18 19 20 21 18 17 16 16 17 18 19 19 20 21 22

ECMWFNIL_sfc_temp_030.txt.gz
Temp
36 36 35 35 34 34 34 34 34 34 34 34 34 35 35 36 37 36 36 36 35 35 36 36 36 36 36 36 36 36 36 36 36 37 36 35 34 34 36 36 36 37
34 35 35 34 34 34 34 33 33 33 33 33 33 33 34 35 35 36 36 36 36 36 35 34 34 34 34 34 34 34 34 34 35 37 35 35 35 34 34 34 35 36
33 33 32 32 32 31 31 31 31 31 32 32 31 32 33 32 32 33 33 34 35 36 36 35 35 34 33 32 32 33 33 33 34 34 33 34 34 34 35 34 34 34
32 32 32 31 31 31 31 32 31 31 31 32 30 31 31 31 29 30 30 31 31 32 33 34 35 35 34 33 32 32 32 32 32 33 33 34 34 34 34 34 34 34
30 31 30 31 30 31 32 32 32 32 32 32 32 32 32 31 31 29 29 30 29 30 31 31 31 32 33 34 33 32 32 32 32 32 32 32 34 33 34 34 34 34
28 28 28 28 28 28 31 28 29 31 32 31 30 31 31 31 31 31 31 31 31 30 29 29 30 30 30 30 31 32 32 32 32 31 31 31 32 33 34 34 33 33
29 28 28 27 29 27 28 28 27 28 28 28 28 30 29 30 30 30 30 30 31 32 31 31 30 30 28 28 29 30 31 31 32 32 31 31 31 31 32 32 32 32
29 28 27 26 27 27 27 28 28 28 27 27 28 29 27 28 28 28 28 29 29 30 30 30 31 32 31 30 29 28 28 31 31 30 30 30 30 31 32 32 31 31
27 27 26 26 27 27 26 27 27 27 26 27 28 28 27 27 27 27 28 28 28 29 29 29 30 30 30 31 31 30 30 30 30 28 29 29 29 30 31 31 31 31
27 26 27 27 28 27 27 27 26 27 26 26 27 27 27 28 26 27 27 26 27 27 28 28 29 29 30 30 30 29 30 30 31 31 31 29 29 29 30 30 30 31
28 25 27 26 26 26 26 26 26 26 26 26 27 27 26 27 27 25 26 26 27 27 27 27 28 28 28 29 29 29 29 30 30 31 31 31 31 31 31 30 30 30
26 25 25 25 25 25 26 26 27 26 26 26 25 26 26 26 26 27 26 26 26 26 27 27 28 28 28 28 28 28 29 29 29 30 30 31 31 31 31 31 30 31
27 27 27 27 27 26 26 26 26 26 25 26 26 25 25 26 26 26 27 27 27 27 27 27 27 27 27 28 28 28 28 28 28 29 29 30 30 31 31 32 32 31
27 26 26 27 27 27 27 26 27 26 26 26 25 25 25 25 26 27 27 27 27 27 27 27 27 27 27 27 27 27 27 27 28 28 28 29 29 30 31 31 32 32
26 26 26 26 26 27 27 27 27 27 27 26 26 26 27 26 27 26 26 26 26 26 26 27 27 27 28 27 27 27 28 27 28 28 28 28 29 29 30 31 31 32
26 26 26 26 26 26 26 25 25 25 25 25 25 25 25 26 25 26 25 25 25 25 26 26 27 27 29 31 31 29 28 28 28 27 27 28 28 28 29 30 30 31
25 25 25 25 24 24 23 23 23 23 22 22 22 23 23 23 24 23 24 24 24 24 24 25 25 26 29 31 31 32 29 27 26 26 26 26 26 27 27 28 29 30
24 24 23 22 21 20 20 19 20 19 19 19 19 20 21 21 21 21 22 22 22 22 22 22 23 26 28 29 30 30 30 27 26 25 25 26 26 26 26 27 27 28
22 20 19 18 18 17 17 17 17 17 17 17 17 18 18 18 19 19 19 20 20 19 19 20 20 24 26 27 27 28 28 28 25 25 24 24 24 24 25 25 26 26
18 16 16 15 16 15 15 15 15 14 15 15 16 16 15 15 15 15 16 16 16 16 16 17 17 20 24 25 25 26 26 26 23 23 23 23 23 23 24 24 24 24
16 14 13 14 13 13 12 12 12 12 12 13 13 13 12 12 12 11 12 12 12 13 13 13 14 20 21 22 23 23 24 24 20 20 20 21 22 23 23 23 24 24
12 11 11 10 11 10 9 10 10 9 9 10 10 10 10 10 10 10 10 10 10 10 10 9 11 17 19 20 21 22 23 18 17 16 16 16 16 18 20 21 23 24
11 10 9 8 8 7 6 6 7 7 7 8 7 7 7 7 7 8 8 8 8 8 7 8 8 13 17 19 19 21 19 15 15 15 15 15 15 17 18 18 19 20
9 6 6 6 5 4 5 6 6 6 6 7 6 5 5 6 6 6 7 7 6 6 6 6 7 11 16 17 18 19 18 15 14 13 13 14 14 16 18 18 19 22
6 5 5 4 3 4 4 3 4 4 5 5 5 5 4 5 5 4 4 5 5 5 9 8 6 9 14 16 17 18 17 14 14 13 13 13 14 14 16 17 17 19
4 3 3 3 3 3 3 3 4 3 3 4 4 4 3 3 3 3 2 3 4 4 5 6 5 6 9 15 17 18 19 15 14 13 12 12 13 13 13 14 16 17

ECMWFNIL_sfc_temp_033.txt.gz
Temp
34 33 33 33 32 33 32 32 32 32 31 31 31 31 31 31 31 31 32 32 32 32 32 32 32 32 33 32 31 31 32 31 32 33 32 32 32 32 34 33 33 32
32 33 33 33 32 33 32 32 32 31 30 30 30 29 30 30 30 29 30 30 31 31 31 31 31 31 31 31 31 30 31 30 30 32 31 31 31 31 31 31 31 31
30 30 30 31 31 30 30 30 31 30 30 29 28 29 31 29 30 29 29 29 29 30 29 29 29 29 30 29 30 30 30 30 30 30 30 30 30 30 31 30 31 30
28 28 28 28 29 29 28 29 28 29 28 29 28 29 29 30 28 28 28 29 28 29 29 29 29 29 29 29 29 29 29 29 29 29 29 30 30 30 30 30 31 31
28 28 28 28 27 28 29 29 29 29 29 28 29 29 29 29 29 29 29 28 27 27 27 27 27 28 28 29 28 29 29 29 29 29 29 29 30 30 31 30 29 29
28 27 27 28 27 29 31 29 29 29 29 29 29 29 28 28 28 29 29 29 29 29 29 29 29 28 27 27 27 26 27 28 29 28 28 28 29 30 30 30 29 29
29 28 28 28 28 27 30 28 28 29 28 27 27 29 27 28 28 27 27 27 27 28 28 28 28 28 29 28 28 28 27 26 27 27 27 28 28 29 30 29 29 29
29 28 28 27 27 25 27 26 26 27 26 27 27 28 27 27 28 28 28 27 27 28 28 28 28 28 28 28 27 28 28 29 28 27 27 27 27 27 28 29 29 29
27 27 26 26 27 26 26 26 26 26 26 26 27 27 26 26 26 26 26 26 26 27 27 27 28 27 28 27 27 27 27 27 28 27 27 26 27 27 27 28 28 28
27 25 26 25 27 25 25 26 25 26 26 26 26 26 26 27 25 25 25 25 25 25 25 26 26 27 27 26 26 26 26 26 27 27 27 26 26 27 27 27 27 27
28 25 26 25 24 24 25 25 25 25 25 24 25 25 25 25 25 24 25 25 25 25 25 25 26 25 25 26 26 26 26 26 26 26 26 27 27 27 28 27 27 27
25 24 25 24 24 24 24 25 24 24 24 24 24 24 24 24 24 24 24 24 25 25 25 25 25 25 25 25 25 25 25 26 26 26 26 26 27 27 27 27 27 27
25 26 26 25 25 25 24 24 24 24 24 24 24 23 24 24 24 24 24 24 24 24 25 25 25 25 25 25 25 25 25 25 25 25 26 26 27 27 27 27 28 28
25 25 25 25 25 24 24 24 24 23 23 23 23 23 23 23 23 23 23 23 23 24 24 24 24 24 24 24 25 25 25 25 25 25 25 25 26 26 27 27 27 27
25 25 25 24 23 23 22 22 22 22 22 21 21 21 22 22 22 22 21 21 22 22 22 23 23 23 24 24 24 24 25 24 24 24 24 24 24 25 25 26 26 27
24 23 23 22 22 21 21 20 20 20 19 19 19 18 18 19 19 19 20 19 19 20 20 20 21 22 23 26 27 24 24 23 23 23 23 23 23 23 23 24 25 26
22 21 21 20 20 19 17 17 18 16 16 16 16 16 16 16 17 17 17 18 17 17 17 17 18 19 22 24 25 26 24 22 21 21 22 21 21 21 21 22 24 25
20 18 17 16 16 15 15 13 14 13 13 13 13 13 14 14 14 15 15 15 15 15 14 15 15 18 21 22 24 24 25 22 21 20 20 20 20 20 20 21 21 22
16 14 13 12 13 12 12 11 11 11 10 10 10 11 12 11 13 12 12 12 12 12 12 12 13 17 19 21 22 23 24 23 20 19 18 18 19 19 19 19 20 20
14 11 11 10 10 10 10 9 9 9 9 9 9 10 9 9 9 9 10 10 10 10 10 10 11 14 19 21 21 22 22 22 19 18 18 18 17 17 17 17 17 16
12 11 9 9 9 8 7 7 7 7 7 8 7 8 7 7 7 6 7 7 7 8 8 8 9 16 18 19 20 21 21 21 18 17 16 15 16 16 16 16 16 17
10 8 7 6 8 6 5 6 6 5 5 6 6 6 6 6 6 6 6 5 6 6 6 6 8 15 17 18 19 20 21 17 16 14 14 14 14 15 16 17 17 17
10 8 6 5 5 4 4 4 5 4 4 5 4 4 5 4 4 4 5 5 5 5 5 5 5 11 15 17 18 19 18 14 14 13 13 13 14 15 16 16 17 17
8 5 4 3 2 2 2 4 4 4 3 3 3 3 3 3 3 3 4 4 4 3 4 4 4 9 15 16 17 18 18 14 13 12 12 12 13 15 16 16 17 19
5 4 3 1 1 2 1 1 1 2 3 2 2 1 2 2 3 2 2 2 3 3 7 6 4 7 13 15 16 18 16 14 13 13 12 12 13 13 15 15 16 17
3 2 1 -0 1 1 1 1 1 1 0 1 1 1 1 1 1 1 0 1 2 2 3 4 3 4 7 14 16 18 19 15 14 12 11 12 12 12 12 13 15 15

ECMWFNIL_sfc_temp_036.txt.gz
Temp
33 33 32 32 32 32 32 32 31 31 30 29 29 29 29 29 29 29 28 29 29 29 29 29 29 29 29 29 28 28 29 28 29 29 28 28 29 28 30 29 29 28
32 33 33 34 33 33 33 33 32 32 31 29 28 28 29 28 28 28 29 29 29 28 28 28 29 29 29 29 28 27 27 27 27 30 27 27 28 27 28 28 28 28
31 31 31 32 32 31 30 29 29 29 29 28 27 28 29 28 28 27 28 28 28 28 28 28 28 29 29 29 29 29 28 27 27 27 27 26 27 27 27 27 27 28
29 29 29 29 29 29 28 28 27 27 27 28 27 27 27 28 27 27 27 28 27 27 27 26 26 27 26 27 28 28 28 28 28 27 27 27 27 27 27 27 27 27
29 29 30 29 28 28 28 29 29 28 28 27 28 28 28 28 27 27 27 27 26 26 26 26 26 26 26 26 26 26 26 26 26 26 26 26 27 27 27 27 26 26
28 28 28 29 28 29 30 29 28 28 28 28 28 28 27 27 27 27 27 27 27 27 27 26 26 26 26 25 25 25 25 25 25 25 25 25 26 26 27 27 25 26
30 30 30 29 28 28 28 26 26 27 26 25 26 27 26 26 26 26 26 26 25 26 26 26 26 26 26 26 25 25 25 25 25 25 25 25 25 25 25 25 25 25
26 25 25 25 26 26 28 26 26 26 25 26 26 26 25 25 25 25 25 24 24 24 24 24 24 24 24 24 24 25 25 26 26 25 24 24 25 24 25 26 26 25
25 26 25 25 26 25 25 25 24 24 24 24 24 24 24 24 23 23 24 23 23 23 23 23 24 23 24 23 24 24 24 24 25 24 24 24 24 24 25 25 25 25
25 24 24 24 25 24 24 24 24 24 25 24 24 24 24 23 23 23 23 22 22 23 23 23 23 23 23 23 23 23 23 23 24 24 24 24 24 24 24 25 24 24
25 23 25 24 24 24 24 24 24 24 24 23 23 23 23 23 23 22 22 22 23 22 22 22 23 23 23 23 23 23 23 23 23 23 24 24 24 24 26 24 24 24
24 24 25 25 24 24 24 23 23 23 22 23 23 22 22 22 22 22 22 21 22 22 22 22 22 22 22 22 22 22 23 23 23 23 23 24 24 24 24 24 24 24
24 25 25 24 24 24 23 23 22 22 22 22 22 21 21 21 21 21 21 21 21 21 21 21 21 21 21 21 22 22 22 22 22 22 23 23 23 23 24 24 24 24
24 24 24 24 23 23 22 21 21 20 21 21 19 20 19 19 19 19 19 19 20 20 20 20 20 20 20 20 21 21 21 21 21 21 21 21 21 22 22 22 23 23
23 24 23 22 22 21 20 20 20 19 18 17 17 17 18 18 18 18 17 17 17 17 17 18 18 18 19 20 20 20 21 20 20 20 20 19 20 20 21 21 21 22
22 22 21 21 20 19 18 17 16 15 15 15 15 14 14 15 14 15 15 14 14 14 15 15 16 17 18 22 23 21 21 20 20 20 20 20 19 19 19 20 20 21
19 19 18 17 17 16 13 13 15 12 11 10 10 11 11 12 12 13 12 12 12 12 12 13 14 15 19 22 23 24 22 21 20 20 20 20 19 18 17 18 20 20
17 16 14 14 13 11 11 9 9 8 8 8 7 8 9 9 9 10 10 11 11 11 11 11 12 15 19 20 22 23 23 21 20 19 18 19 19 18 18 18 18 18
14 12 12 10 10 9 8 7 6 8 6 6 6 6 6 6 9 8 8 9 9 9 8 10 10 14 17 20 21 23 23 22 19 19 18 17 18 18 17 17 16 16
12 10 10 9 8 6 7 5 5 5 5 4 5 6 6 6 5 6 7 7 7 7 7 8 8 12 17 20 21 21 22 22 19 18 17 17 17 16 16 15 15 15
12 9 8 8 7 6 4 4 4 3 5 5 3 5 5 4 4 3 4 4 5 5 6 6 7 14 17 19 20 21 21 21 17 16 15 15 15 15 15 15 16 16
8 7 6 5 6 3 3 5 4 2 3 3 3 3 1 3 3 1 3 3 4 4 4 4 6 13 16 18 19 20 21 17 15 14 14 14 14 15 15 16 16 16
9 6 5 4 4 3 1 2 4 2 2 1 1 2 3 2 1 2 2 2 2 2 2 3 4 9 15 17 18 20 18 14 14 13 13 13 14 14 15 16 16 17
7 4 4 2 0 -0 -0 3 1 0 -1 -1 0 1 1 0 1 1 1 1 1 1 2 2 3 8 14 16 17 18 18 14 13 13 12 13 13 15 16 16 16 18
4 3 2 1 -0 1 -1 -1 -2 -1 -1 -2 -2 -3 -1 -0 0 -0 -0 -0 0 1 5 5 3 6 11 14 17 18 17 15 14 13 12 13 13 13 15 15 16 18
2 1 1 -1 0 -1 -2 -2 -2 -3 -3 -3 -3 -2 -2 -1 -1 -1 -2 -1 0 1 1 2 2 2 6 14 16 18 19 16 15 13 12 12 13 13 13 14 15 16

ECMWFNIL_sfc_temp_039.txt.gz
Temp
36 36 36 35 35 35 36 35 35 34 34 34 34 33 33 33 33 33 33 33 33 33 33 33 33 33 33 33 33 33 33 33 33 33 33 33 33 33 32 33 33 34
36 36 36 36 35 35 35 35 35 35 34 34 34 34 33 33 32 33 32 32 33 32 32 33 33 32 32 33 32 32 33 33 32 33 32 32 33 32 32 32 32 33
35 35 36 35 34 33 33 33 33 34 33 33 33 33 33 33 32 32 32 32 32 32 32 32 32 32 32 31 31 32 32 31 31 32 31 31 32 32 32 32 32 32
34 34 34 34 33 33 33 33 32 32 32 32 32 32 32 32 32 31 31 31 31 31 31 31 31 31 31 31 31 31 31 31 31 31 31 32 31 32 31 32 32 32
33 33 33 33 33 33 33 32 32 32 32 32 31 32 32 31 31 31 31 30 31 30 31 30 31 30 30 30 30 30 30 30 31 30 30 30 31 31 31 31 30 30
32 33 33 33 33 33 33 32 31 31 32 32 31 31 31 31 31 30 30 30 30 30 30 30 30 30 30 30 30 30 30 30 30 30 29 29 30 30 30 30 30 29
32 32 32 32 32 32 31 31 31 31 31 31 31 30 30 30 30 30 30 30 30 30 29 29 29 29 29 29 29 29 29 29 29 29 28 29 29 29 30 30 30 29
31 32 32 32 32 32 31 31 30 30 31 31 31 30 30 30 29 29 29 29 29 28 28 28 28 28 28 28 28 27 27 28 28 28 27 27 28 27 29 29 29 28
31 31 31 31 31 31 31 30 30 30 30 30 30 29 30 29 29 28 28 28 28 28 27 27 27 27 28 27 27 27 26 27 27 27 26 26 26 27 27 28 28 28
31 31 31 31 31 30 29 29 29 29 29 29 29 29 28 28 28 27 27 27 26 26 26 26 26 26 26 26 26 26 26 26 26 26 26 26 26 26 27 27 27 26
31 31 30 30 29 29 28 28 28 28 28 27 27 27 27 26 26 26 25 25 24 24 24 24 25 24 24 25 25 25 25 25 25 25 25 26 26 26 26 26 26 25
30 30 30 29 28 28 27 27 27 26 26 26 26 25 25 25 24 24 24 23 23 23 23 23 23 23 23 23 24 24 24 24 24 25 25 25 25 25 25 25 24 24
30 29 29 28 28 27 26 26 25 24 24 23 24 23 22 22 22 21 22 21 22 22 22 21 21 22 22 22 22 23 23 23 23 23 24 24 24 24 24 24 24 24
29 28 28 27 26 26 25 24 23 23 22 22 21 21 20 20 20 19 20 20 20 19 20 20 20 20 21 21 21 22 23 23 23 22 23 23 23 23 24 24 24 24
27 27 26 25 24 24 22 22 21 20 20 19 19 18 18 18 18 18 17 17 17 18 17 18 18 18 19 20 21 23 23 23 22 22 22 22 22 22 23 23 23 23
26 25 24 23 22 21 20 19 18 18 17 17 16 16 16 16 16 16 16 15 15 15 16 16 16 17 17 21 23 23 23 22 22 22 22 21 20 20 21 22 22 23
24 23 22 20 20 18 16 16 16 15 14 14 13 13 13 13 14 14 14 14 13 14 13 14 15 15 18 21 22 23 23 22 21 21 22 21 20 20 19 20 21 22
22 20 19 17 16 15 14 13 12 11 11 11 11 11 11 12 12 12 12 13 12 12 12 12 13 15 18 20 21 23 23 22 22 20 20 20 20 19 19 19 19 19
19 17 15 14 13 12 12 10 9 10 9 8 8 9 10 10 11 10 10 11 11 10 10 11 11 14 17 19 21 22 23 23 21 20 19 19 19 19 18 18 17 17
16 14 14 12 11 10 10 9 8 8 8 9 8 9 9 8 8 8 8 8 9 9 9 9 10 12 17 19 20 21 22 23 21 20 18 18 18 17 17 17 17 16
15 13 12 11 10 9 8 8 8 7 8 8 7 8 7 7 6 6 6 6 6 7 7 7 8 13 16 18 19 21 22 22 19 18 16 16 17 17 17 17 17 17
13 11 10 9 9 7 6 8 7 7 6 6 5 6 6 7 6 5 5 4 5 5 5 5 7 13 15 17 19 20 21 19 17 16 15 15 15 17 17 18 18 18
13 10 9 7 7 6 5 5 7 5 5 5 3 5 5 4 3 3 4 3 3 3 3 4 5 9 14 16 18 20 19 17 16 15 15 14 15 16 17 18 18 18
12 8 7 6 5 3 4 7 5 5 3 3 3 3 3 2 3 2 2 3 2 2 2 3 4 8 13 15 17 18 19 16 16 15 14 15 15 17 17 18 18 19
8 7 6 4 4 5 2 3 3 2 3 2 1 0 1 1 1 1 0 1 1 2 5 5 4 6 11 14 16 18 18 17 16 15 14 14 15 15 18 18 18 20
6 5 4 2 3 2 1 2 2 -1 -1 0 -1 -0 -1 0 -0 -0 -1 -0 1 1 2 3 3 4 6 13 16 18 19 18 17 15 14 14 15 16 15 16 17 18

ECMWFNIL_sfc_temp_042.txt.gz
Temp
46 47 46 46 46 45 45 45 45 44 44 44 43 43 42 41 41 41 41 41 41 41 40 40 40 40 40 41 41 42 42 40 41 40 39 40 40 38 37 37 38 39
45 45 46 46 45 45 45 44 44 43 43 43 43 42 41 41 40 40 39 40 40 39 39 39 39 39 39 40 39 40 41 40 39 39 38 38 39 39 38 37 38 38
45 44 45 44 43 43 43 43 43 43 42 41 41 41 39 39 39 39 39 39 39 39 38 39 38 38 38 38 38 40 39 38 38 38 38 38 38 38 38 38 38 37
44 44 43 43 43 42 42 42 41 41 41 41 40 39 39 38 39 38 38 38 39 38 38 38 38 38 37 37 38 39 38 38 38 37 38 39 38 38 37 38 37 37
42 42 43 43 42 42 42 41 41 41 40 39 39 40 40 39 39 39 39 39 39 38 38 38 38 38 37 38 38 38 38 39 38 37 37 37 38 37 36 37 36 36
42 43 42 42 42 41 41 41 40 40 40 39 39 40 40 40 40 39 39 39 39 39 38 38 38 38 37 37 38 38 38 38 37 36 36 36 37 37 36 35 35 35
41 41 41 41 41 41 41 40 40 40 40 40 41 39 40 39 39 38 38 38 37 37 37 36 36 36 36 36 37 36 36 36 35 35 34 35 36 35 36 35 35 35
41 41 41 41 40 41 40 40 40 40 40 40 39 38 38 37 37 36 36 36 36 35 35 35 35 35 35 35 35 34 34 34 33 34 33 34 34 34 35 34 34 34
41 41 41 41 41 41 41 40 40 39 40 39 38 37 37 37 36 36 35 35 35 35 34 34 34 34 34 33 33 33 33 33 33 33 32 32 32 33 33 34 33 33
41 41 41 42 41 41 39 39 39 38 38 37 36 36 35 35 35 34 34 34 33 33 33 33 33 33 32 33 32 32 32 32 32 32 32 32 31 32 32 32 31 31
41 42 41 41 40 40 38 38 37 37 36 35 35 35 34 34 34 34 32 33 32 32 32 32 32 31 31 31 32 32 31 31 31 31 31 31 31 31 30 30 30 30
41 41 41 40 39 38 37 37 36 35 35 34 34 33 33 32 32 32 32 31 31 31 31 30 31 30 30 30 30 30 30 30 30 30 30 30 30 30 30 30 29 29
41 40 39 38 37 37 36 35 34 33 33 32 32 31 31 31 30 30 30 29 29 29 29 29 28 29 29 29 29 29 29 29 29 29 29 30 30 29 30 30 29 29
39 38 38 37 36 35 35 34 33 32 31 30 30 29 29 29 28 28 29 28 28 27 27 27 27 28 28 28 28 28 29 28 28 28 28 28 28 29 29 29 29 29
37 37 35 34 34 33 32 31 30 30 29 28 28 28 27 27 26 26 26 26 26 25 25 26 26 26 27 26 26 27 27 27 27 26 26 26 26 27 28 28 28 29
36 35 34 33 33 32 31 30 29 28 27 26 25 25 25 25 24 24 24 24 24 24 24 24 24 25 22 21 23 25 25 26 25 25 25 25 25 25 26 27 28 28
35 34 33 32 32 31 27 27 27 25 24 22 22 22 21 21 22 23 23 23 22 22 22 23 23 23 20 22 23 24 24 24 24 24 25 24 25 25 24 25 26 27
34 33 32 31 28 25 24 23 22 21 21 20 20 19 20 20 20 21 21 22 21 21 21 21 22 21 20 21 22 23 24 24 23 22 23 24 24 24 25 25 24 24
34 32 29 26 26 24 22 20 19 19 18 17 17 19 18 18 20 19 19 20 19 19 19 20 21 20 19 20 21 22 23 23 23 23 22 22 23 24 23 23 23 23
32 29 27 25 23 21 20 19 18 19 19 19 18 17 17 17 17 16 17 17 18 17 18 19 19 18 19 20 21 21 22 23 22 22 22 22 22 22 22 22 22 22
30 28 26 23 20 19 19 18 18 18 16 17 17 17 16 15 16 15 14 13 13 14 15 15 17 17 18 19 20 21 22 22 22 21 21 20 21 21 21 21 21 22
28 26 24 21 20 18 18 18 17 16 15 17 15 16 16 15 15 14 12 11 12 11 12 12 16 17 17 18 19 20 21 21 20 19 19 19 19 21 21 21 22 22
28 25 23 20 19 17 16 17 16 15 15 15 13 15 15 14 13 12 12 11 10 10 9 11 13 15 16 17 18 20 20 19 19 18 18 18 19 20 21 21 22 22
27 24 21 19 17 16 16 17 17 17 14 14 13 13 13 13 12 11 10 10 9 9 9 8 9 13 15 17 17 19 19 18 18 18 17 17 18 20 21 21 22 22
24 22 20 18 16 16 15 15 14 14 14 12 12 12 12 11 10 10 9 9 8 7 8 9 9 11 14 15 17 18 19 18 18 17 16 17 18 18 21 21 22 23
21 19 18 16 15 15 13 14 14 12 10 10 10 12 12 12 10 10 7 8 8 7 7 8 9 10 11 14 16 18 19 19 19 17 16 17 18 18 18 20 21 22

ECMWFNIL_sfc_temp_045.txt.gz
Temp
51 51 50 50 49 49 49 48 48 47 47 47 46 45 44 44 44 43 43 43 43 42 42 42 42 42 42 43 43 44 43 42 42 41 40 41 41 39 38 39 39 40
50 50 50 49 48 48 48 48 47 47 46 46 45 44 44 43 43 42 42 42 42 41 41 41 41 41 41 41 41 41 41 41 40 41 39 39 40 40 39 39 39 39
49 48 48 48 47 46 46 47 47 46 45 44 44 44 42 42 41 42 41 41 41 41 41 41 40 40 39 39 39 41 40 39 38 39 39 39 39 38 38 39 39 38
48 48 47 46 46 45 46 45 44 44 44 43 43 42 41 40 41 40 40 40 40 40 40 40 39 39 39 39 39 41 40 40 39 38 38 40 40 39 38 38 37 37
46 46 47 46 46 46 45 44 44 44 43 42 41 42 41 41 41 41 41 40 41 40 40 40 40 39 39 39 39 39 39 40 39 37 37 37 39 38 37 37 36 35
45 46 45 45 45 45 44 43 43 42 42 42 42 42 41 42 41 40 40 40 40 40 39 39 39 39 38 38 38 38 38 37 37 36 36 36 37 37 36 36 35 35
43 43 43 44 43 44 43 42 42 42 42 42 42 41 41 41 40 39 39 39 39 38 38 37 37 37 37 37 37 37 37 36 35 35 35 35 36 35 36 36 35 34
43 43 43 43 42 42 42 42 42 42 42 42 40 40 40 39 39 38 38 38 37 37 37 37 36 36 36 36 36 35 35 35 34 34 34 34 34 34 35 35 34 33
43 42 42 42 42 42 42 41 41 41 42 40 40 39 39 38 38 37 37 37 37 37 36 36 35 35 36 35 34 34 33 34 34 34 33 32 32 33 33 33 33 32
43 43 42 43 42 43 41 41 40 40 40 39 39 39 37 37 37 36 36 36 36 36 36 35 35 34 34 34 34 33 33 32 33 33 32 32 32 32 32 32 31 31
43 43 42 43 43 42 41 40 40 39 39 38 38 37 37 37 36 36 35 36 34 34 34 34 34 33 33 33 33 33 32 32 32 32 32 32 32 31 31 31 30 30
42 42 42 42 42 41 40 40 39 38 38 37 37 36 36 36 35 35 35 34 34 33 33 33 33 32 32 32 32 32 32 31 31 31 31 31 31 31 31 31 30 30
42 42 43 42 41 40 40 39 38 37 37 36 36 35 35 34 34 33 34 33 33 32 32 31 31 31 31 31 31 31 31 30 30 30 30 30 30 30 30 30 30 30
43 43 43 42 41 39 38 37 36 36 35 35 34 33 33 33 32 32 32 32 31 31 31 30 30 30 31 31 30 30 29 29 29 29 28 29 29 29 30 30 30 29
43 43 42 40 38 37 36 35 34 34 33 33 32 32 32 32 31 30 30 30 30 29 29 29 29 29 30 29 27 27 28 27 27 27 27 27 27 28 28 29 29 29
42 40 39 37 36 34 34 34 33 32 32 31 30 30 30 30 29 29 29 29 28 28 28 28 28 29 28 25 25 25 25 25 25 26 26 25 25 26 27 28 28 29
40 38 37 34 34 34 31 31 31 30 29 29 28 28 27 26 27 27 27 28 27 27 27 28 28 28 26 25 25 25 25 24 24 24 25 24 25 25 25 26 27 28
38 36 35 34 33 30 29 29 28 27 26 25 25 24 25 25 25 26 27 27 26 26 26 26 27 27 27 25 25 25 25 24 23 23 23 24 24 24 25 25 26 26
38 35 33 31 30 29 28 26 25 24 24 23 23 24 24 23 24 25 24 25 25 24 24 25 25 26 26 25 24 24 24 24 23 23 22 23 24 24 24 25 25 24
36 33 32 30 29 27 26 24 23 23 23 23 23 22 22 22 23 22 22 23 23 23 23 24 24 25 25 24 24 24 23 24 23 22 22 23 23 23 24 23 23 23
35 33 32 30 27 25 24 23 23 23 23 22 21 21 21 20 21 19 20 20 19 20 20 20 22 23 24 23 23 23 23 23 22 22 22 22 23 23 23 23 23 23
34 32 31 29 27 24 23 23 23 22 20 22 21 22 22 21 21 20 18 17 17 16 16 16 19 22 23 23 22 22 23 21 21 20 20 20 20 22 22 23 23 23
35 33 31 28 25 23 22 22 22 21 21 22 19 21 20 19 18 17 17 16 15 14 14 14 16 20 21 21 21 21 21 20 19 19 19 19 20 21 22 22 22 23
35 32 30 28 25 23 22 23 23 22 20 21 19 19 19 18 18 16 16 15 14 13 13 12 13 17 19 20 20 21 20 19 19 18 18 18 19 21 21 22 22 23
34 32 31 28 25 24 23 22 21 21 20 19 19 19 18 18 17 15 14 13 12 11 13 12 11 13 17 19 19 20 20 19 18 17 17 18 18 19 21 21 22 23
33 30 29 27 25 24 23 22 21 19 17 16 16 18 17 17 15 14 11 12 12 11 9 11 11 12 14 18 18 19 20 19 19 17 16 17 18 18 18 20 21 22

ECMWFNIL_sfc_temp_051.txt.gz
Temp
41 41 41 40 40 40 39 38 37 36 35 34 34 33 33 33 33 33 33 33 33 32 31 31 31 32 32 31 30 31 30 29 29 28 27 28 27 28 29 27 26 27
40 40 39 39 38 38 37 38 37 36 35 34 34 33 33 33 33 33 33 32 32 31 31 31 30 30 30 30 29 30 29 29 28 29 27 26 27 26 26 25 25 25
39 39 39 39 39 37 37 36 36 35 35 34 33 34 33 33 32 32 32 32 31 31 30 30 29 29 28 28 28 30 28 27 28 26 27 26 25 27 25 25 25 26
39 39 39 38 38 37 36 36 34 34 33 33 33 33 33 33 32 31 31 31 31 30 29 28 28 27 28 27 28 28 27 27 25 25 25 25 26 25 25 25 25 25
38 37 37 37 37 37 37 35 34 34 33 33 32 32 32 32 31 31 30 29 29 29 29 28 28 28 27 28 27 27 26 26 25 24 25 24 25 26 27 25 24 24
36 37 36 36 36 37 36 35 34 33 33 32 32 32 32 31 31 30 29 29 29 29 28 28 28 27 27 26 27 26 26 27 24 24 24 24 25 24 26 25 23 23
35 35 35 35 35 35 35 33 33 33 33 33 32 31 30 30 30 30 29 29 29 28 28 28 27 27 26 26 26 25 24 24 23 23 24 23 23 23 23 23 23 23
35 35 35 35 34 34 33 33 33 32 32 31 31 30 30 30 30 30 29 29 29 28 27 27 26 26 25 26 26 25 24 27 25 23 22 22 22 23 22 25 23 23
35 34 34 34 33 33 33 32 32 31 31 31 30 30 30 30 30 29 29 28 28 28 27 27 26 26 25 25 25 24 24 23 24 22 22 22 23 23 23 22 22 22
34 34 34 34 33 33 33 32 31 31 31 31 30 30 30 29 29 29 29 28 28 27 27 27 26 26 25 25 25 24 23 24 22 22 22 22 23 22 22 23 23 22
33 33 33 33 33 33 32 31 31 31 30 30 30 29 29 29 28 28 28 28 29 27 27 26 26 26 26 24 24 23 23 23 22 22 22 22 22 23 26 23 22 22
33 33 33 33 32 32 32 32 31 31 30 29 30 29 28 29 29 29 29 28 27 27 27 26 26 25 25 24 23 22 22 22 21 22 22 22 22 23 22 22 22 21
33 33 33 33 32 32 32 31 31 31 30 29 29 30 30 29 29 29 29 29 28 27 26 26 25 25 24 23 22 22 21 21 21 21 21 21 22 22 22 22 22 22
34 34 33 33 33 32 31 31 31 30 30 30 30 30 30 30 30 30 29 29 27 26 25 24 24 23 22 22 22 21 20 19 19 19 20 20 20 20 21 21 22 22
34 33 33 33 32 31 30 30 30 30 30 30 30 31 31 31 30 30 29 28 26 25 23 24 24 24 24 22 21 21 21 20 19 18 18 18 19 19 19 20 19 19
34 34 33 33 31 30 30 30 30 29 29 29 29 30 30 30 29 29 28 26 24 23 23 23 23 24 26 30 27 21 20 20 19 17 17 17 17 17 17 18 18 19
34 34 33 31 32 31 29 29 29 29 29 29 28 28 27 27 27 26 24 24 23 23 22 23 23 23 29 31 31 30 22 19 18 15 17 17 16 16 17 17 18 19
35 34 32 32 32 30 29 29 29 28 27 27 26 25 26 25 24 24 23 23 22 22 21 21 21 27 31 32 32 31 26 20 17 16 15 18 18 17 17 17 17 18
34 33 32 31 31 30 29 28 27 27 26 25 24 24 22 21 23 22 21 21 21 21 20 20 20 28 31 32 32 31 30 24 17 18 19 18 18 17 17 17 17 17
33 31 31 31 31 29 28 27 26 26 25 23 22 20 20 20 19 19 20 20 20 20 19 19 19 27 31 32 32 31 31 28 18 20 20 20 20 19 18 18 17 17
32 31 30 30 29 28 27 26 25 23 22 20 20 21 20 19 19 19 18 18 17 17 17 17 18 27 30 31 31 31 30 28 19 21 21 20 20 19 19 18 18 18
31 31 30 29 28 26 25 25 23 22 21 20 19 19 18 18 19 19 18 17 16 15 15 15 17 28 29 31 31 31 31 23 20 21 20 19 18 18 18 18 17 17
33 31 29 28 26 25 23 23 23 21 20 19 18 19 19 18 17 17 17 16 14 14 15 15 14 24 29 30 30 31 28 21 21 19 18 17 16 16 17 16 17 16
33 30 28 27 25 24 24 24 23 22 21 19 20 19 18 18 17 15 13 14 14 14 15 14 13 19 28 29 29 30 27 20 20 17 16 16 14 16 16 16 17 21
30 29 29 27 25 25 25 24 23 23 21 18 19 19 19 16 14 14 12 11 12 13 17 15 12 16 25 28 29 29 27 19 18 16 15 14 13 13 16 16 16 19
30 29 29 27 26 26 24 25 23 20 18 18 17 17 16 14 13 13 13 12 11 10 12 15 12 11 16 27 28 29 29 21 18 15 14 14 13 13 12 13 15 15

ECMWFNIL_sfc_temp_054.txt.gz
Temp
42 41 41 40 39 38 38 37 36 36 35 34 34 33 33 32 31 32 31 31 32 32 31 31 31 31 31 30 29 30 29 29 28 28 27 28 27 27 28 25 25 26
41 40 39 38 37 37 36 37 36 36 34 34 33 32 31 31 31 32 32 31 31 31 30 30 30 30 30 30 29 30 29 29 29 29 28 27 26 26 26 25 24 24
39 39 38 38 38 36 36 35 35 34 34 33 32 32 32 31 31 31 31 31 31 30 30 30 30 30 30 29 29 29 29 28 27 26 27 26 25 26 24 24 25 25
38 38 38 37 37 36 35 34 33 32 32 32 32 32 32 32 31 31 31 31 30 30 30 30 30 29 29 28 28 28 27 27 26 26 26 25 25 25 25 25 25 24
37 37 37 37 36 36 35 34 33 32 32 32 32 32 32 31 31 30 30 30 30 30 29 29 28 28 28 28 28 27 27 26 25 26 26 25 25 25 25 25 24 23
36 37 36 36 35 35 35 34 33 33 32 32 32 32 31 31 31 31 30 30 29 30 29 28 28 27 28 27 27 27 27 27 25 25 25 24 23 24 26 25 23 23
36 36 36 35 35 35 34 34 33 33 32 32 31 31 31 31 31 30 30 30 29 29 29 28 28 27 27 27 27 26 26 25 24 25 24 23 23 23 23 23 23 23
36 36 35 35 34 34 33 33 32 32 32 31 32 31 31 31 30 30 29 29 29 28 28 28 28 28 27 27 27 26 26 27 25 24 23 22 23 22 22 25 22 22
36 35 34 34 34 33 33 32 32 32 32 32 32 31 30 31 30 30 29 29 28 28 28 27 28 27 27 27 27 27 26 25 25 24 23 22 22 22 22 21 21 21
35 35 34 34 34 33 33 32 32 32 32 32 31 31 30 30 30 29 29 29 28 27 27 28 28 28 27 26 26 26 25 25 24 23 22 21 22 21 21 20 20 19
34 34 34 34 34 33 32 32 32 32 31 32 30 30 31 31 30 29 28 28 28 28 28 29 30 29 27 26 25 24 25 24 23 23 22 21 21 21 23 20 20 20
34 34 34 34 34 33 32 32 32 32 31 31 31 32 32 32 31 30 29 29 29 30 31 30 29 28 27 26 24 23 23 23 22 22 22 21 21 21 21 20 20 19
34 35 35 34 34 33 33 32 32 31 32 32 32 32 32 31 31 31 30 31 31 30 30 30 29 28 26 24 23 22 23 22 21 21 20 20 20 20 20 20 19 19
36 35 35 35 34 33 32 32 32 32 33 32 32 32 32 32 31 31 31 31 30 30 30 29 29 27 26 24 23 23 22 21 21 21 20 20 19 19 19 19 19 19
35 34 34 33 32 32 32 32 33 33 32 32 32 32 32 32 32 32 30 30 29 29 28 28 28 28 27 25 23 22 22 22 21 20 20 20 19 18 18 18 17 17
34 34 34 33 32 32 32 33 33 32 32 31 31 32 32 31 31 31 31 30 29 29 28 27 27 26 27 30 28 23 21 21 20 19 19 19 19 18 18 18 18 17
33 33 33 32 33 33 32 32 32 31 30 30 30 30 30 29 30 30 29 30 29 28 27 27 27 25 30 33 32 31 23 20 20 18 18 19 18 18 17 18 17 17
33 32 31 31 31 31 31 31 31 29 29 29 28 28 28 28 29 29 29 29 28 27 27 26 25 28 32 34 34 33 28 21 19 18 18 18 18 17 17 17 17 17
32 31 31 30 30 31 31 30 29 29 28 28 27 28 27 27 28 28 27 27 26 25 25 24 22 29 33 34 34 34 32 25 17 18 17 17 18 17 17 17 16 17
32 30 30 30 31 30 30 29 29 28 29 29 28 27 27 27 26 26 26 25 25 24 23 22 20 27 33 34 34 34 33 28 18 18 18 17 18 18 18 17 17 16
32 31 30 31 30 30 29 29 29 28 28 28 27 27 26 26 26 25 24 23 21 21 20 19 20 27 32 34 34 34 34 30 18 19 18 17 18 18 18 17 17 18
32 31 31 30 30 29 28 29 28 28 28 27 26 26 26 25 24 23 22 20 19 17 18 18 19 28 31 34 34 34 34 27 19 19 18 17 17 18 18 18 17 17
33 32 31 30 29 29 28 28 28 28 28 26 24 25 24 23 23 21 20 19 17 17 17 18 18 25 31 33 34 35 33 23 19 18 18 17 17 17 18 18 17 17
33 31 31 30 30 29 29 29 29 28 27 25 25 24 23 22 20 19 17 17 17 17 17 18 18 21 30 32 33 34 32 22 20 18 18 18 17 18 17 16 17 20
33 32 32 31 30 30 30 29 28 28 27 23 23 23 22 19 17 17 16 14 15 16 19 18 17 20 28 31 33 33 31 22 20 18 17 16 16 15 16 15 16 19
32 31 31 31 30 30 29 28 27 24 23 22 20 19 18 16 15 16 16 16 14 13 14 17 17 15 19 30 32 33 33 23 19 18 16 16 15 14 12 13 14 14